Погода в Пскове

Хотите узнать прогноз погоды в Пскове? Тогда Вам сюда: Погода в Пскове

Поиск расширенной информации на нашем сайте:

Полезная информация:

Новости сайта



02.01.2020
Опубликован Долгосрочный прогноз погоды по городам России и ближнего зарубежья на январь 2020 года.
Карты: Прогноз на январь и февраль 2020 года, Сравнение прогнозируемой аномалии приземной температуры воздуха на январь 2020 года по разным моделям.




Погода в Пскове - сегодня

Время (UTC), дата Ветер
(°,м/с) 
Видим.   Явления Облачность Т
(°С)
Тd
(°С)
f(%) Тe
(°С)
Pmin
(гПа)
dP
(гПа)
Po
(мм)
O2
(г/м3)
Тmin Tmax R s Состояние
почвы
12 29.11.20 040 (СВ) 4000 м  слаб. ливневой снег  10/10 300 м кучево-дожд. 
[Cb cap]
+0 -2.1 86 -2  1025.1  -1.6  765  308           
15 29.11.20 050 (СВ) 10 км  слаб. ливневой снег  10/10 300 м кучево-дожд. 
[Cb cap]
-0.1 -2.3 85 -3  1024.2  -0.9  764  308      0.1     
18 29.11.20 040 (СВ) 4000 м  слаб. ливневой снег  10/10 300 м кучево-дожд. 
[Cb cap]
-0.5 -1.7 92 -2  1023  -1.2  763  308    +0.4  0.3     
21 29.11.20 050 (СВ) 4000 м  слаб. ливневой снег  10/10 300 м кучево-дожд. 
[Cb cap]
-0.2 -0.8 96 -1  1021.7  -1.3  762  307           
00 30.11.20 080 (В) 10 км  слаб. ливневой снег  10/10 300 м кучево-дожд. 
[Cb cap]
+0.5 -0.4 94 -1  1020.8  -0.8  761  306           
03 30.11.20 140 (ЮВ) 10 км  слаб. ливневой снег  10/10 300 м кучево-дожд. 
[Cb cap]
+0.4 -0.2 96 1020.6  -0.2  761  306  -0.6    0.7     
06 30.11.20 130 (ЮВ) 20000 м  {ливн. осадки}  10/10 300 м кучево-дожд. 
[Cb cap]
+0.2 -0.7 94 -1  1020.9  0.3  761  307  -0.3    0.3  равномерный
мокрый или
старый снег
100% 
09 30.11.20 130 (ЮВ) 10 км  слаб. ливневой снег  10/10 300 м кучево-дожд. 
[Cb cap]
+0.3 -0.6 94 -1  1020.9  761  307           
12 30.11.20 160 (Ю) 20000 м  {ливн. осадки}  10/10 300 м кучево-дожд. 
[Cb cap]
+0.5 -1.7 85 -1  1019.8  -1.1  761  306           
15 30.11.20 140 (ЮВ) 10 км  слаб. ливневой снег  10/10 300 м кучево-дожд. 
[Cb cap]
-0.4 -1.3 94 -2  1018.8  -1  760  307      0.5     
18 30.11.20 170 (Ю) 4000 м  ливневой снег  10/10 300 м кучево-дожд. 
[Cb cap]
-0.3 -0.7 97 -2  1018  -0.8  759  306    +0.6     
21 30.11.20 180 (Ю) 2000 м  ливневой снег  10/10 300 м кучево-дожд. 
[Cb cap]
-0.2 -0.5 98 -2  1018.3  0.3  760  306           
00 01.12.20 200 (Ю) 4000 м  слаб. ливневой снег  10/10 300 м кучево-дожд. 
[Cb cap]
+0 -0.4 97 -1  1019.2  0.9  760  306           
03 01.12.20 200 (Ю) 4000 м  слаб. ливневой снег  10/10 300 м кучево-дожд. 
[Cb cap]
+0.1 -0.3 97 -1  1021.2  762  307  -0.4       
06 01.12.20 190 (Ю) 20000 м  {ливн. осадки}  10/10 600 м кучево-дожд. 
[Cb cap]
+0.2 -0.4 96 -1  1023.4  2.1  763  307  -0.3    0.1  равномерный
мокрый или
старый снег
100% 
09 01.12.20 180 (Ю) 10 км  в посл. час ливневой снег  10/10 600 м 
[]
+0.3 -0.4 95 1025.4  765  308           
12 01.12.20 190 (Ю) 20000 м  {ливн. осадки}  н/о 
+0.3 -0.4 95 +1  1026.5  1.1  766  308           
15 01.12.20 190 (Ю) 20000 м  дымка  10/10 600 м 
[Sc diur, vesp]
+0.5 -0.1 96 1028.5  767  309      0.0     
21 01.12.20 210 (ЮЗ) 20000 м    10/10 300 м 
[St]
-0.7 -1.9 92 -2  1031.6  1.2  769  311           
00 02.12.20 210 (ЮЗ) 20000 м    10/10 600 м 
[Sc diur, vesp]
-0.7 -2.2 90 1032.8  1.1  770  311           
03 02.12.20 180 (Ю) 20000 м    10/10 600 м 
[Sc diur, vesp]
-0.9 -2.6 88 -2  1033  0.2  770  312  -0.9         
06 02.12.20 140 (ЮВ) 10 км    10/10 600 м 
[Sc diur, vesp]
-1.1 -2.6 90 -2  1033.3  0.3  771  312  -1.2      равномерный
мокрый или
старый снег
100% 
09 02.12.20 170 (Ю) 20000 м    10/10 600 м 
[Sc]
-0.9 -3.4 83 -2  1033.6  0.3  771  312           
12 02.12.20 150 (ЮВ) 20000 м    10/10 600 м 
[St]
-1.8 -3.5 88 -3  1032.5  -1.1  770  313           
15 02.12.20 140 (ЮВ) 20000 м    10/10 600 м 
[Sc]
-2 -3.6 89 -3  1031.7  -0.8  770  313           
Время (UTC), дата Ветер
(°,м/с) 
Видим.   Явления Облачность Т
(°С)
Тd
(°С)
f(%) Тe
(°С)
Pmin
(гПа)
dP
(гПа)
Po
(мм)
O2
(г/м3)
Тmin Tmax R s Состояние
почвы

Для получения пояснительной информации подведите курсор к названию столбца.

ПОГОДА в Пскове - архив

Всё, что Вы хотите узнать о погоде в Пскове - удобно и подробно!

Выберите нужную дату (начиная с 1 января 2019* года) и нажмите кнопку "Найти".
Будут отображены архивные сводки погоды по пункту Псков, начиная с указанной даты.


Отображать данные в формате CSV (для использования в таблицах Excel)


Внимание! Наш архив погоды предназначен исключительно для личного некоммерческого использования в познавательных целях. Если Вам необходимы официальные справки о состоянии погоды (для производственных, юридических, коммерческих и т.п. целей), обращайтесь в органы Росгидромета.

*Примечание: данная дата относится к архиву по метеостанциям СССР (Россия, СНГ, Балтия).
Архив по метеостанциям Зарубежной Европы и Азии (кроме Китая) хранится 10 дней, по другим регионам земного шара (Китай, Африка, Америка, Австралия, Океания) - 1 день.

Псков - район местоположения метеостанции


Название, широта, долгота, высота метеостанции:
Псков (город) 57.8°ш. 28.5°д. 44 м над ур. моря [Российская Федерация]

Дополнительная информация

В oтличие oт бoльшинства пoгoдных сайтoв мы публикуем пoдрoбную метеoинфoрмацию в детальнoм прoфессиoнальнoм фoрмате.

Характеристики температуры и влажнoсти вoздуха измеряются на высoте 2 м в тени вдали oт зданий и деревьев.
Скoрoсть ветра измеряется на высoте 10 м (на урoвне рoста челoвека скoрoсть ветра ниже в 1.5-2 раза). Если метеoстанция нахoдится в гoрoде или в лесу, тo скoрoсть ветра занижена на 2-4 м/с пo сравнению с oткрытым местoм. Скoрoсть ветра над акватoриями крупных рек и oзёр, а также на вершинах хoлмoв на 2-5 м/с выше, чем в oбычных услoвиях.
Атмoсфернoе давление в разных тoчках местнoсти мoжет значительнo oтличаться oт давления на метеoстанции, в зависимoсти oт услoвий рельефа (при пoдъёме на 10 м давление пoнижается примернo на 1 мм рт.ст.).